#timestamp,LO_Frequency,Hit,StdDev 
1639519215.8,286046999.4,N
1639519235.6,286046998.7,N
1639519255.5,286046999.0,N
1639519275.3,286046998.9,N
1639519295.2,286046996.5,Y
1639519315.9,286046999.3,P
1639519335.7,286046996.5,P
1639519355.6,286046996.9,N
1639519375.4,286046999.6,N
1639519395.2,286046998.6,N
1639519415.1,286046998.1,N
1639519416.0,286046998.1,N
1639519435.8,286047011.9,Y
1639519455.7,286047000.0,P
1639519475.5,286047000.1,N
1639519495.3,286047000.5,N
1639519515.2,286047000.7,N
1639519535.0,286046998.5,N
1639519535.9,286046998.5,N
1639519555.8,286047001.1,N
1639519575.6,286046999.1,N
1639519595.4,286046999.0,N
1639519615.3,286046996.9,Y
1639519635.1,286046998.8,P
1639519655.9,286046998.5,P
1639519675.7,286046998.3,P
1639519695.5,286047000.2,N
1639519715.4,286047000.5,N
1639519735.2,286047000.5,N
1639519755.0,286046998.3,N
1639519755.9,286046998.3,N
1639519775.8,286046998.3,N
1639519795.6,286046999.5,N
1639519815.5,286047001.2,N
1639519835.3,286046998.4,N
1639519855.1,286046998.2,N
1639519875.9,286046999.1,N
1639519895.7,286046998.6,N
1639519915.6,286046998.9,N
1639519935.4,286046998.6,N
1639519955.2,286046998.9,N
1639519975.1,286047001.2,N
1639519976.0,286047001.2,N
1639519995.8,286046999.5,N
1639520015.7,286046996.8,Y
1639520035.5,286046999.2,P
1639520055.3,286046999.4,P
1639520075.2,286046998.4,P
1639520095.0,286046998.5,Y
1639520095.9,286046998.5,P
1639520115.7,286047002.3,P
1639520135.6,286047002.7,N
1639520155.4,286046999.8,N
1639520175.3,286047004.2,N
1639520195.1,286047003.5,N
1639520196.0,286047003.5,N
1639520215.8,286047003.9,N
1639520235.7,286047001.6,N
1639520255.5,286047004.3,N
1639520275.3,286047000.4,N
1639520295.2,286047000.7,N
1639520315.0,286047000.9,N
1639520315.9,286047000.9,N
1639520335.8,286047001.5,N
1639520355.6,286047002.1,N
1639520375.4,286047001.0,N
1639520395.3,286046998.4,N
1639520415.1,286047000.6,N
1639520435.9,286047000.4,N
1639520455.7,286047002.7,N
1639520475.5,286047001.9,N
1639520495.4,286047001.7,N
1639520515.2,286047004.3,N
1639520535.0,286047001.5,N
1639520535.9,286047001.5,N
1639520555.8,286047003.7,N
1639520575.6,286047005.4,Y
1639520595.5,286047001.6,P
1639520615.3,286047001.7,P
1639520635.1,286047003.5,P
1639520655.9,286047001.3,N
1639520675.7,286047002.5,Y
1639520695.5,286046998.6,P
1639520715.4,286046998.1,N
1639520735.2,286046999.4,N
1639520755.1,286047000.8,N
1639520756.0,286047000.8,N
1639520775.8,286047000.0,N
1639520795.6,286047000.8,N
1639520815.5,286047002.8,N
1639520835.3,286047001.5,N
1639520855.2,286047004.4,Y
1639520875.9,286047003.9,P
1639520895.7,286047003.9,N
1639520915.6,286047004.1,N
1639520935.4,286047002.0,N
1639520955.2,286047002.7,N
1639520975.1,286047001.7,N
1639520976.0,286047001.7,N
1639520995.8,286047000.1,N
1639521015.7,286047002.7,N
1639521035.5,286046999.7,N
1639521055.3,286047000.3,N
1639521075.2,286047002.8,N
1639521095.9,286047002.6,N
1639521115.7,286047000.6,N
1639521135.6,286046998.9,N
1639521155.4,286046998.5,N
1639521175.3,286046999.1,N
1639521195.1,286046996.7,N
1639521215.8,286046997.6,N
1639521235.7,286046999.1,N
1639521255.5,286046999.0,N
1639521275.4,286047000.8,N
1639521295.2,286047001.2,N
1639521315.0,286046998.8,N
1639521315.9,286046998.8,N
1639521335.8,286047001.2,N
1639521355.6,286046998.1,N
1639521375.4,286046996.7,N
1639521395.3,286046996.5,N
1639521415.1,286046996.9,N
1639521435.9,286046996.5,N
1639521455.7,286046998.7,N
1639521475.5,286046998.6,N
1639521495.4,286046998.5,N
1639521515.2,286046998.3,N
1639521535.1,286047000.4,N
1639521536.0,286047000.4,N
1639521555.8,286047000.6,N
1639521575.6,286047001.0,N
1639521595.5,286046998.2,N
1639521615.3,286046998.7,N
1639521635.1,286046996.6,N
1639521655.9,286046996.9,N
1639521675.7,286046996.9,N
1639521695.6,286046996.7,N
1639521715.4,286046995.8,N
1639521735.2,286046996.1,N
1639521755.1,286046995.9,N
1639521756.0,286046995.9,N
1639521775.8,286046994.8,Y
1639521795.7,286046995.3,P
1639521815.5,286046995.3,P
1639521835.3,286046996.6,N
1639521855.2,286047000.7,N
1639521875.0,286046999.1,N
1639521875.9,286046999.1,N
1639521895.8,286047001.1,N
1639521915.6,286046999.6,N
1639521935.4,286046997.1,N
1639521955.3,286046996.8,N
1639521975.1,286046997.0,N
1639521995.8,286046999.4,N
1639522015.7,286047001.1,N
1639522035.5,286047000.1,N
1639522055.4,286047000.1,N
1639522075.2,286047000.8,N
1639522095.0,286046998.6,N
1639522095.9,286046998.6,N
1639522115.8,286047000.6,N
1639522135.6,286047001.0,N
1639522155.5,286046999.9,N
1639522175.3,286046999.9,N
1639522195.1,286046999.8,N
1639522215.9,286047000.9,N
1639522235.7,286046998.4,N
1639522255.5,286046998.2,N
1639522275.4,286046998.5,N
1639522295.2,286046999.5,N
1639522315.1,286046998.3,N
1639522316.0,286046998.3,N
1639522335.8,286047000.1,N
1639522355.6,286046999.6,N
1639522375.5,286046999.3,N
1639522395.3,286046997.3,N
1639522415.1,286046998.0,N
1639522435.9,286046996.8,N
1639522455.7,286046996.8,N
1639522475.6,286046999.3,N
1639522495.4,286047000.8,N
1639522515.2,286047002.8,N
1639522535.1,286047001.6,N
1639522536.0,286047001.6,N
1639522555.8,286047001.4,N
1639522575.6,286047001.6,N
1639522595.5,286047004.2,N
1639522615.3,286047002.0,N
1639522635.2,286047004.0,N
1639522655.9,286047003.1,N
1639522675.7,286047004.0,N
1639522695.6,286047004.0,N
1639522715.4,286047004.1,N
1639522735.2,286047002.8,N
1639522755.1,286047002.4,N
1639522756.0,286047002.4,N
1639522775.8,286047002.1,N
1639522795.7,286047004.0,N
